Location: Unspecified
(0.0000°N, 0.0000°E)
Time: 13:39:19
(UTC+00:00)

Hubble Space Telescope - Pass Details

Date: 01 April 2020
Orbit: 536 x 540 km, 28.5° (Epoch: 01 April)

Event Time Altitude Azimuth Distance (km) Brightness Sun altitude
Rises 18:30:59 0° 243° (WSW) 2,669 5.4 -6.8°
Reaches altitude 10° 18:33:15 10° 245° (WSW) 1,777 4.5 -7.4°
Maximum altitude 18:37:21 71° 330° (NNW) 561 1.0 -8.4°
Drops below altitude 10° 18:41:27 10° 54° (NE) 1,773 3.0 -9.4°
Enters shadow 18:42:14 - 55° (NE) 2,080 3.3 -9.6°
